Location: Fernhill
(41.0167°S, 175.6333°E)
Time: 07:01:11
(UTC+00:00)

Exosat Rocket - Pass Details

Date: 08 November 2025
Orbit: 759 x 2514 km, 72.3° (Epoch: 11 December)

Event Time Altitude Azimuth Distance (km) Brightness Sun altitude
Exits shadow 10:43:46 71° 105° (ESE) 1,041 4.0 -29.5°
Drops below altitude 10° 10:48:52 10° 154° (SSE) 2,482 6.6 -29.9°
Sets 10:51:02 0° 156° (SSE) 3,339 7.4 -30.0°
